EW7151 Weather Reports


Display with metric or nautical units.
time (UTC)temp
F
wind
direction
speed
MPH
gust
MPH
rain 1hr
in
rain 24hr
in
rain mn
in
humidity
%
barometer
mb
20260504050721 56 176 2.0 4.0 0.00 0.00 0.00 70 1006.9
20260504050218 56 156 3.0 5.0 0.00 0.00 0.00 69 1006.8
20260504045715 57 180 4.0 4.0 0.00 0.00 0.00 68 1006.7
20260504045215 57 183 2.0 6.0 0.00 0.00 0.00 68 1006.8
20260504044714 57 198 3.0 7.0 0.00 0.00 0.00 67 1006.7
20260504044211 58 176 2.0 8.0 0.00 0.00 0.00 66 1006.7
20260504043708 58 117 0.0 7.0 0.00 0.00 0.00 66 1006.8
20260504043204 58 211 3.0 5.0 0.00 0.00 0.00 65 1006.9
20260504042702 59 210 6.0 8.0 0.00 0.00 0.00 65 1006.8
20260504042158 58 197 4.0 6.0 0.00 0.00 0.00 66 1006.8
20260504041654 59 140 2.0 5.0 0.00 0.00 0.00 65 1006.7
20260504041150 59 165 3.0 7.0 0.00 0.00 0.00 65 1006.8
20260504040647 59 206 2.0 7.0 0.00 0.00 0.00 64 1006.9
20260504040144 58 131 5.0 5.0 0.00 0.00 0.00 65 1006.8
20260504035641 59 162 3.0 5.0 0.00 0.00 0.00 64 1006.8
20260504035138 59 203 3.0 6.0 0.00 0.00 0.00 65 1006.7
20260504034636 59 165 3.0 4.0 0.00 0.00 0.00 64 1006.7
20260504034132 59 159 2.0 5.0 0.00 0.00 0.00 64 1006.9
20260504033630 59 152 0.0 6.0 0.00 0.00 0.00 63 1006.7
20260504033127 59 163 3.0 4.0 0.00 0.00 0.00 63 1006.8
20260504032624 59 154 3.0 6.0 0.00 0.00 0.00 63 1006.9
20260504032121 60 151 0.0 2.0 0.00 0.00 0.00 62 1007.1
20260504031618 60 170 3.0 3.0 0.00 0.00 0.00 61 1007.1
20260504031114 60 130 2.0 3.0 0.00 0.00 0.00 61 1007.2
20260504030611 61 168 4.0 5.0 0.00 0.00 0.00 61 1007.1
20260504030108 61 156 0.0 7.0 0.00 0.00 0.00 60 1007.2
20260504025605 61 199 4.0 9.0 0.00 0.00 0.00 60 1007.2
20260504025101 61 200 5.0 7.0 0.00 0.00 0.00 59 1007.1
20260504024559 62 180 2.0 5.0 0.00 0.00 0.00 59 1007.3
20260504024055 61 180 4.0 8.0 0.00 0.00 0.00 60 1007.2
20260504023552 62 198 4.0 12.0 0.00 0.00 0.00 59 1007.1
20260504023048 62 207 7.0 9.0 0.00 0.00 0.00 59 1007.2
20260504022544 62 146 0.0 6.0 0.00 0.00 0.00 59 1007.1
20260504022040 62 180 3.0 7.0 0.00 0.00 0.00 58 1007.2
20260504021538 62 148 4.0 6.0 0.00 0.00 0.00 58 1007.1
20260504021035 62 210 5.0 6.0 0.00 0.00 0.00 58 1007.1
20260504020531 62 179 8.0 8.0 0.00 0.00 0.00 57 1006.8
20260504020028 62 168 2.0 8.0 0.00 0.00 0.00 57 1006.7
20260504015524 62 180 4.0 4.0 0.00 0.00 0.00 58 1006.8
20260504015020 62 176 2.0 4.0 0.00 0.00 0.00 57 1006.7
20260504014517 62 214 4.0 5.0 0.00 0.00 0.00 57 1006.7
20260504014014 62 196 2.0 4.0 0.00 0.00 0.00 56 1006.7
20260504013512 63 196 2.0 5.0 0.00 0.00 0.00 56 1006.7
20260504013009 62 80 2.0 4.0 0.00 0.00 0.00 56 1006.6
20260504012506 63 170 3.0 4.0 0.00 0.00 0.00 55 1006.6
20260504012004 63 157 2.0 3.0 0.00 0.00 0.00 55 1006.3
20260504011500 63 206 2.0 3.0 0.00 0.00 0.00 54 1006.3
20260504010955 64 215 1.0 2.0 0.00 0.00 0.00 54 1006.4
20260504010452 64 157 0.0 2.0 0.00 0.00 0.00 53 1006.4
20260504005948 64 114 0.0 2.0 0.00 0.00 0.00 53 1006.2
20260504005445 65 143 0.0 3.0 0.00 0.00 0.00 51 1006.3
20260504004943 66 180 0.0 3.0 0.00 0.00 0.00 49 1006.3
20260504004440 66 352 0.0 4.0 0.00 0.00 0.00 49 1006.4
20260504003937 67 198 0.0 3.0 0.00 0.00 0.00 49 1006.3
20260504003433 67 216 3.0 8.0 0.00 0.00 0.00 47 1006.5
20260504002930 68 177 3.0 3.0 0.00 0.00 0.00 47 1006.4
20260504002427 68 230 0.0 6.0 0.00 0.00 0.00 46 1006.4
20260504001924 68 19 2.0 5.0 0.00 0.00 0.00 46 1006.4
20260504001422 69 229 6.0 6.0 0.00 0.00 0.00 45 1006.3
20260504000918 69 251 0.0 6.0 0.00 0.00 0.00 45 1006.4
20260504000416 70 214 3.0 8.0 0.00 0.00 0.00 44 1006.4
20260503235913 70 220 4.0 6.0 0.00 0.00 0.00 45 1006.3
20260503235410 70 191 2.0 5.0 0.00 0.00 0.00 44 1006.5
20260503234908 70 77 3.0 10.0 0.00 0.00 0.00 44 1006.5
20260503234405 70 288 3.0 7.0 0.00 0.00 0.00 44 1006.4
20260503233903 71 287 3.0 6.0 0.00 0.00 0.00 43 1006.4
20260503233359 70 280 3.0 14.0 0.00 0.00 0.00 43 1006.5
20260503232855 71 159 7.0 11.0 0.00 0.00 0.00 42 1006.6
20260503232353 71 283 3.0 11.0 0.00 0.00 0.00 42 1006.5
20260503231851 71 292 9.0 15.0 0.00 0.00 0.00 42 1006.5
20260503231347 71 327 9.0 11.0 0.00 0.00 0.00 41 1006.5
20260503230843 72 304 6.0 9.0 0.00 0.00 0.00 41 1006.7
20260503230340 72 282 2.0 5.0 0.00 0.00 0.00 42 1006.7
20260503225839 71 297 2.0 6.0 0.00 0.00 0.00 43 1006.6
20260503225334 70 278 1.0 18.0 0.00 0.00 0.00 43 1006.7
20260503224830 70 196 3.0 13.0 0.00 0.00 0.00 43 1006.6
20260503224328 70 193 11.0 16.0 0.00 0.00 0.00 42 1006.7
20260503223826 72 301 0.0 6.0 0.00 0.00 0.00 42 1006.7
20260503223323 70 180 6.0 17.0 0.00 0.00 0.00 42 1006.9
20260503222818 70 197 4.0 9.0 0.00 0.00 0.00 42 1006.9
20260503222317 70 201 12.0 20.0 0.00 0.00 0.00 42 1006.9
20260503221815 71 203 8.0 15.0 0.00 0.00 0.00 41 1006.8
20260503221313 71 202 4.0 23.0 0.00 0.00 0.00 42 1006.7
20260503220809 70 180 3.0 8.0 0.00 0.00 0.00 43 1006.8
20260503220306 69 153 5.0 18.0 0.00 0.00 0.00 45 1006.8
20260503215803 68 176 4.0 22.0 0.00 0.00 0.00 45 1006.9
20260503215259 70 219 9.0 13.0 0.00 0.00 0.00 43 1007.1
20260503214757 69 184 7.0 18.0 0.00 0.00 0.00 43 1007.1
20260503214254 69 183 5.0 13.0 0.00 0.00 0.00 43 1006.9
20260503213752 69 175 7.0 16.0 0.00 0.00 0.00 43 1007.3
20260503213249 68 183 5.0 18.0 0.00 0.00 0.00 43 1007.2
20260503212746 68 223 19.0 26.0 0.00 0.00 0.00 42 1007.5
20260503212244 68 178 13.0 19.0 0.00 0.00 0.00 43 1007.5
20260503211741 68 200 1.0 16.0 0.00 0.00 0.00 43 1007.4
20260503211237 68 174 12.0 20.0 0.00 0.00 0.00 43 1007.6
20260503210732 68 167 11.0 22.0 0.00 0.00 0.00 43 1007.9
20260503210230 68 179 13.0 22.0 0.00 0.00 0.00 42 1007.7
20260503205726 69 180 6.0 17.0 0.00 0.00 0.00 42 1007.8
20260503205222 69 206 11.0 15.0 0.00 0.00 0.00 41 1008.1
20260503204718 68 202 16.0 23.0 0.00 0.00 0.00 42 1008.3
20260503204217 70 312 6.0 13.0 0.00 0.00 0.00 41 1008.2
20260503203713 68 225 13.0 24.0 0.00 0.00 0.00 42 1008.5
20260503203211 69 265 4.0 16.0 0.00 0.00 0.00 41 1008.4
20260503202708 68 220 23.0 23.0 0.00 0.00 0.00 42 1008.6
20260503202206 68 195 8.0 29.0 0.00 0.00 0.00 41 1008.7
20260503201703 66 140 2.0 23.0 0.00 0.00 0.00 43 1008.8
20260503201201 67 218 6.0 26.0 0.00 0.00 0.00 43 1009.0
20260503200657 68 247 7.0 22.0 0.00 0.00 0.00 42 1008.9
20260503200153 68 183 7.0 26.0 0.00 0.00 0.00 41 1009.1
20260503195650 67 195 5.0 28.0 0.00 0.00 0.00 44 1009.3
20260503195147 66 187 11.0 22.0 0.00 0.00 0.00 48 1009.2
20260503194644 66 179 7.0 18.0 0.00 0.00 0.00 50 1009.2
20260503194139 65 171 13.0 22.0 0.00 0.00 0.00 49 1009.7
20260503193637 65 252 6.0 19.0 0.00 0.00 0.00 50 1009.8
20260503193132 65 208 13.0 21.0 0.00 0.00 0.00 50 1009.6
20260503192628 65 209 8.0 23.0 0.00 0.00 0.00 52 1009.7
20260503192124 63 185 7.0 22.0 0.00 0.00 0.00 54 1010.2
20260503191621 64 215 6.0 22.0 0.00 0.00 0.00 52 1010.0
20260503191118 64 192 14.0 26.0 0.00 0.00 0.00 51 1009.9
20260503190615 64 178 9.0 13.0 0.00 0.00 0.00 51 1010.0
20260503190112 64 182 10.0 18.0 0.00 0.00 0.00 52 1009.7
20260503185608 63 183 10.0 21.0 0.00 0.00 0.00 52 1009.8
20260503185108 62 285 0.0 15.0 0.00 0.00 0.00 53 1009.6
20260503184604 62 161 8.0 22.0 0.00 0.00 0.00 53 1010.0
20260503184101 62 192 9.0 21.0 0.00 0.00 0.00 52 1010.2
20260503183557 61 138 9.0 18.0 0.00 0.00 0.00 53 1010.3
20260503183055 61 179 9.0 21.0 0.00 0.00 0.00 52 1010.2
20260503182553 61 175 15.0 25.0 0.00 0.00 0.00 51 1010.2
20260503182051 61 195 5.0 20.0 0.00 0.00 0.00 52 1010.3
20260503181547 61 180 5.0 22.0 0.00 0.00 0.00 53 1010.8
20260503181044 59 182 6.0 28.0 0.00 0.00 0.00 55 1010.8
20260503180541 61 186 11.0 24.0 0.00 0.00 0.00 53 1010.8
20260503180038 61 180 9.0 14.0 0.00 0.00 0.00 55 1010.9
20260503175536 61 193 3.0 11.0 0.00 0.00 0.00 56 1011.0
20260503175033 59 184 6.0 19.0 0.00 0.00 0.00 60 1011.0
20260503174530 58 135 9.0 16.0 0.00 0.00 0.00 61 1011.0
20260503174026 57 137 12.0 18.0 0.00 0.00 0.00 63 1011.2
20260503173521 57 181 9.0 17.0 0.00 0.00 0.00 63 1011.4
20260503173017 56 206 10.0 22.0 0.00 0.00 0.00 63 1011.7
20260503172516 56 158 12.0 22.0 0.00 0.00 0.00 64 1011.8
20260503172012 56 203 3.0 18.0 0.00 0.00 0.00 65 1012.1
20260503171509 57 196 7.0 22.0 0.00 0.00 0.00 61 1012.2
20260503171006 57 179 4.0 11.0 0.00 0.00 0.00 63 1012.4
20260503170502 57 132 8.0 19.0 0.00 0.00 0.00 64 1012.6
20260503150855 53 185 3.0 16.0 0.00 0.00 0.00 63 1014.7
20260503150351 54 235 9.0 18.0 0.00 0.00 0.00 60 1014.7
20260503140315 52 177 2.0 11.0 0.00 0.00 0.00 62 1014.5
20260503131244 50 207 6.0 13.0 0.00 0.00 0.00 63 1015.2
20260503130742 49 191 5.0 11.0 0.00 0.00 0.00 63 1015.0
20260503130239 49 356 0.0 14.0 0.00 0.00 0.00 63 1015.2
20260503120205 48 197 7.0 9.0 0.00 0.00 0.00 64 1015.2
20260503110633 48 205 8.0 12.0 0.00 0.00 0.00 62 1014.6
20260503110130 47 180 3.0 13.0 0.00 0.00 0.00 62 1014.7
20260503081440 47 153 3.0 9.0 0.00 0.00 0.00 55 1015.5
20260503080937 47 173 3.0 8.0 0.00 0.00 0.00 55 1015.5
20260503080434 47 158 3.0 7.0 0.00 0.00 0.00 55 1015.5
20260503072910 48 164 4.0 6.0 0.00 0.00 0.00 53 1015.7
20260503072408 48 100 0.0 6.0 0.00 0.00 0.00 52 1015.7
20260503071904 48 209 2.0 6.0 0.00 0.00 0.00 52 1015.6
20260503071402 47 139 2.0 6.0 0.00 0.00 0.00 53 1015.6
20260503070857 46 216 2.0 4.0 0.00 0.00 0.00 55 1015.8
20260503070355 46 143 3.0 5.0 0.00 0.00 0.00 56 1015.7